User: anonymous   Login
Location: UBC Liquid-Mirror Observatory
(49.2876°N, 122.5728°W)
Time: 01:24:00
(UTC-07:00)
Language:

KITSAT 1 - Orbit

View from above orbital plane
View from above orbital plane
View from above satellite
View from above satellite

Ground track
Ground track

The orbit data is extracted from the following two-line orbital elements,

1 22077U 92052B   16208.17391128 -.00000053  00000-0  35205-4 0  9993
2 22077  66.0842 289.4412 0010161 218.8750 154.7502 12.86514069125459
Epoch (UTC): 26 July 2016 04:10:25
Eccentricity: 0.0010161
inclination: 66.0842°
perigee height: 1307 km
apogee height: 1323 km
right ascension of ascending node: 289.4412°
argument of perigee: 218.8750°
revolutions per day: 12.86514069
mean anomaly at epoch: 154.7502°
orbit number at epoch: 12545

The dashed part of the orbit path shows where the satellite is in the earth's shadow,  

DLR